Regional Weather Roundup
Issued by NWS Charleston, SC

Current Version | Previous Version | Graphics & Text | Print | Product List | Glossary On
Versions: 1 2 3 4 5 6 7 8 9 10 11 12 13 14 15 16 17 18 19 20 21 22 23 24 25 26 27 28 29 30 31 32 33 34 35 36 37 38 39 40 41 42 43 44 45 46 47 48 49 50
000 ASUS42 KCHS 190227 RWRCHS REGIONAL WEATHER ROUNDUP NATIONAL WEATHER SERVICE CHARLESTON SC 900 PM EST SAT NOV 18 2017 NOTE: "FAIR" INDICATES FEW OR NO CLOUDS BELOW 12,000 FEET WITH NO SIGNIFICANT WEATHER AND/OR OBSTRUCTIONS TO VISIBILITY. NOT ALL STATIONS ARE QUALITY CONTROLLED. USE DATA WITH CAUTION... ESPECIALLY DEWPOINT OBSERVATIONS. SCZ027-030-031-034>040-042>050-190300- ...SOUTHEAST SOUTH CAROLINA... CITY SKY/WX TMP DP RH WIND PRES REMARKS N CHARLESTON CLEAR 63 59 87 S12 29.84F WATERFRONT PRK NOT AVBL JOHNS ISLAND FAIR 66 63 88 S9G16 29.85F PINOPOLIS N/A 64 57 77 S7 29.74F MONCKS CORNER FAIR 63 55 77 S9 29.82F SUMMERVILLE FAIR 61 55 82 S6 29.84F BEAUFORT MCAS CLEAR 65 60 84 S7 29.86F BEAUFORT ARPT FAIR 64 59 82 S6 29.85F HILTON HEAD IS CLEAR 66 61 82 S12G18 29.87F WALTERBORO CLEAR 61 55 82 S8 29.84F ALLENDALE FAIR 64 54 68 S7G13 29.79F ...SOUTHERN MIDLANDS AND PEE DEE... CITY SKY/WX TMP DP RH WIND PRES REMARKS GEORGETOWN FAIR 63 61 94 SW8 29.85F KINGSTREE FAIR 63 55 77 S8 29.80F ORANGEBURG PTCLDY 63 52 67 S12 29.79F BARNWELL N/A 68 54 60 S12 29.79F AIKEN FAIR 64 50 59 S13G20 29.80F MANNING FAIR 63 59 88 MISG 29.80F COLUMBIA PTCLDY 66 53 63 S9 29.75F SUMTER PTCLDY 64 51 62 S12 29.75F FLORENCE PTCLDY 64 56 75 S13 29.77F MYRTLE BEACH PTCLDY 64 57 78 SW12 29.84F N MYRTLE BEACH CLOUDY 64 58 80 SW17 29.82F $$ GAZ063-065-086>088-099>101-113>116-118-119-134>141-150-190300- ...SOUTHEAST GEORGIA... CITY SKY/WX TMP DP RH WIND PRES REMARKS SAVANNAH ARPT CLEAR 62 58 86 S9 29.87F HUNTER AAF CLEAR 64 57 80 SW6 29.85F FORT STEWART CLEAR 59 53 79 S7 29.85F STATESBORO CLEAR 66 50 57 SW9 29.83S SYLVANIA CLEAR 64 56 73 SW7 29.83F CLAXTON FAIR 66 55 67 S5 29.84F ...CSRA...CENTRAL AND FAR SOUTHEAST GEORGIA... CITY SKY/WX TMP DP RH WIND PRES REMARKS THOMSON MOCLDY 65 51 60 W9G17 29.80F AUGUSTA-BUSH CLOUDY 65 53 65 S9 29.78F AUGUSTA-DANIEL MOCLDY 67 52 58 S14 29.78F SWAINSBORO FAIR 64 54 68 N6 29.82F VIDALIA CLEAR 64 55 72 SW12 29.84S EASTMAN FAIR 68 50 52 SW12G18 29.85S HAZLEHURST FAIR 67 49 53 SW12G17 29.84F ALMA PTCLDY 63 56 78 S8 29.88F WAYCROSS CLEAR 63 57 79 SW8 29.90S JESUP FAIR 63 54 72 CALM 29.89F BAXLEY FAIR 61 55 82 SW10G17 29.86F BRUNSWICK CLEAR 64 54 68 SW10 29.91S SAINT SIMONS CLEAR 66 58 75 SW9 29.90S $$ SCZ027-028-034-036>038-045-046-048>050-GAZ119-141-190300- ...LAKE AND SUPPLEMENTAL COASTAL OBSERVATIONS... STATION/POSITION TIME TEMP WIND PRES WAVE SWELL AIR SEA DIR/SP/G HT/PER HT/PER/DIR (UTC) (F) (DEG/KT/KT) (MB) (FT/S) (FT/S/D) WINYAH BAY 0145 64 220/ 10 1010.0F LAKE MURRAY 0130 66 190/ 13/ 16 1006.8F ACE BASIN NERRS 0145 64 CALM 1011.0S FORT PULASKI NOT AVBL SAPELO ISLAND 0200 62 200/ 5 1012.0 $$ ANZ835-935-AMZ111-154-330-350-352-354-370-450-454-472-190300- ...C-MAN AND BUOY OBSERVATIONS... STATION/POSITION TIME TEMP WIND PRES WAVE SWELL AIR SEA DIR/SP/G HT/PER HT/PER/DIR (UTC) (F) (DEG/KT/KT) (MB) (FT/S) (FT/S/D) BUOY 41004 0210 74 75 220/ 25/ 33 1010.7 BUOY 41008 0150 70 69 190/ 16/ 17 1011.9S 3/ 4 2/ 90/10 FOLLY BEACH CMAN 0200 65 210/ 14/ 16 1011.5F CAPERS NEARSHORE 0208 64 63 220/ 16/ 21 1010.2F FRIPP NEARSHORE 0208 63 63 190/ 10/ 21 1010.4F STATION/POSITION TIME TEMP WIND PRES WAVE SWELL AIR SEA DIR/SP/G HT/PER HT/PER/DIR (UTC) (F) (DEG/KT/KT) (MB) (FT/S) (FT/S/D) 5E ST. MARYS GA 0200 67 N/A 2/11 2/ 90/11 FRYING PAN BUOY 0210 72 71 240/ 19/ 23 1010.2 BUOY 41025 0210 72 67 190/ 25/ 33 1009.3 CAPE LOOKOUT NC 0200 220/ 11/ 14 1009.8F BUOY 41002 0150 72 76 220/ 14/ 19 1014.8F 4/ 9 3/ 20/ 9 BUOY 41010 NOT AVBL ST AUGUSTINE FL 0200 65 69 240/ 5/ 6 1014.1S $$

USA.gov is the U.S. government's official web portal to all federal, state and local government web resources and services.